Location: Godzisko
(49.9648°N, 19.4576°E)
Time: 01:55:47
(UTC+00:00)

Meteor 2-20 - Pass Details

Date: 20 April 2021
Orbit: 939 x 958 km, 82.5° (Epoch: 08 May)

Event Time Altitude Azimuth Distance (km) Brightness Sun altitude
Rises 02:36:55 0° 190° (S) 3,615 7.1 -9.9°
Reaches altitude 10° 02:39:24 10° 191° (S) 2,676 6.4 -9.5°
Maximum altitude 02:45:32 83° 279° (W) 970 4.5 -8.7°
Drops below altitude 10° 02:51:45 10° 9° (N) 2,702 7.4 -7.8°
Sets 02:54:16 0° 10° (N) 3,653 8.1 -7.5°
